EW7144 Weather Reports


Display with metric or nautical units.
time (UTC)temp
F
wind
direction
speed
MPH
gust
MPH
rain 1hr
in
rain 24hr
in
rain mn
in
humidity
%
barometer
mb
20210228162449 65 93 3.0 12.0 0.00 0.14 0.03 91 1011.9
20210228161905 65 205 1.0 3.0 0.00 0.14 0.03 91 1011.8
20210228161406 65 109 3.0 9.0 0.00 0.14 0.03 91 1011.8
20210228160905 65 107 3.0 12.0 0.00 0.14 0.03 91 1011.9
20210228160407 65 78 4.0 10.0 0.00 0.14 0.03 91 1012.0
20210228155905 65 105 3.0 9.0 0.00 0.14 0.03 91 1012.1
20210228155404 65 126 4.0 12.0 0.00 0.14 0.03 90 1012.1
20210228154905 65 105 3.0 10.0 0.00 0.14 0.03 90 1012.2
20210228154405 65 124 1.0 12.0 0.00 0.14 0.03 90 1012.1
20210228153910 65 142 6.0 14.0 0.00 0.14 0.03 90 1012.2
20210228153409 65 83 5.0 12.0 0.00 0.14 0.03 90 1012.3
20210228153023 65 115 4.0 13.0 0.00 0.14 0.03 90 1012.3
20210228152510 65 94 7.0 12.0 0.00 0.14 0.03 90 1012.3
20210228151916 65 92 7.0 13.0 0.00 0.14 0.03 89 1012.3
20210228151408 65 105 4.0 13.0 0.00 0.14 0.03 89 1012.3
20210228150908 65 138 3.0 12.0 0.00 0.14 0.03 89 1012.3
20210228150406 65 130 7.0 13.0 0.00 0.14 0.03 89 1012.3
20210228145904 64 115 5.0 14.0 0.00 0.14 0.03 89 1012.4
20210228145405 64 105 3.0 7.0 0.00 0.14 0.03 89 1012.5
20210228144914 64 108 6.0 14.0 0.00 0.14 0.03 89 1012.4
20210228144404 64 81 3.0 14.0 0.00 0.14 0.03 89 1012.6
20210228143912 64 146 3.0 10.0 0.00 0.14 0.03 89 1012.5
20210228143405 64 111 3.0 8.0 0.00 0.14 0.03 89 1012.5
20210228143050 64 79 5.0 12.0 0.00 0.14 0.03 89 1012.5
20210228142426 64 126 4.0 14.0 0.00 0.14 0.03 89 1012.5
20210228141904 64 109 3.0 7.0 0.00 0.14 0.03 89 1012.6
20210228141404 64 80 3.0 7.0 0.00 0.14 0.03 89 1012.5
20210228140904 64 127 3.0 8.0 0.00 0.14 0.03 90 1012.5
20210228140406 64 114 4.0 9.0 0.00 0.14 0.03 90 1012.5
20210228135905 64 121 5.0 9.0 0.00 0.14 0.03 90 1012.5
20210228135416 64 48 2.0 8.0 0.00 0.14 0.03 90 1012.5
20210228134904 64 117 3.0 7.0 0.00 0.14 0.03 91 1012.6
20210228134404 64 119 4.0 9.0 0.00 0.14 0.03 91 1012.6
20210228133905 64 78 1.0 8.0 0.00 0.14 0.03 91 1012.6
20210228133404 64 121 3.0 10.0 0.01 0.14 0.03 91 1012.6
20210228132954 64 123 2.0 7.0 0.01 0.14 0.03 91 1012.6
20210228132435 64 128 2.0 7.0 0.01 0.14 0.03 91 1012.7
20210228131905 64 107 3.0 9.0 0.02 0.14 0.03 91 1012.7
20210228131405 65 139 4.0 8.0 0.03 0.14 0.03 91 1012.8
20210228130907 65 139 2.0 9.0 0.03 0.14 0.03 91 1012.8
20210228130407 65 99 3.0 10.0 0.03 0.14 0.03 91 1012.9
20210228125905 65 81 2.0 9.0 0.03 0.14 0.03 91 1012.9
20210228125405 65 118 2.0 10.0 0.03 0.14 0.03 91 1012.9
20210228124905 65 110 2.0 9.0 0.03 0.14 0.03 91 1013.0
20210228124406 65 63 2.0 5.0 0.03 0.14 0.03 91 1013.0
20210228123904 65 59 1.0 5.0 0.03 0.14 0.03 91 1013.0
20210228123405 65 136 2.0 6.0 0.02 0.13 0.02 91 1013.0
20210228123039 65 100 3.0 7.0 0.02 0.13 0.02 91 1013.1
20210228122437 65 129 3.0 8.0 0.02 0.13 0.02 91 1013.1
20210228121908 65 92 3.0 7.0 0.01 0.12 0.01 91 1013.1
20210228121410 65 87 3.0 8.0 0.00 0.11 0.00 91 1013.0
20210228120904 65 113 3.0 8.0 0.00 0.11 0.00 91 1012.9
20210228120404 65 107 6.0 12.0 0.00 0.11 0.00 91 1012.9
20210228115907 65 131 6.0 12.0 0.00 0.11 0.00 91 1012.9
20210228115531 65 136 4.0 8.0 0.00 0.11 0.00 91 1013.1
20210228115241 65 72 2.0 8.0 0.00 0.11 0.00 91 1013.1
20210228114406 65 100 2.0 8.0 0.00 0.11 0.00 91 1013.2
20210228113937 65 72 2.0 8.0 0.00 0.11 0.00 91 1013.2
20210228113406 65 98 1.0 7.0 0.00 0.11 0.00 91 1013.3
20210228113030 65 112 3.0 8.0 0.00 0.11 0.00 91 1013.2
20210228112413 65 138 4.0 7.0 0.00 0.11 0.00 91 1013.2
20210228111907 65 69 2.0 7.0 0.00 0.11 0.00 91 1013.4
20210228111407 65 120 6.0 10.0 0.00 0.11 0.00 91 1013.4
20210228110907 65 70 1.0 8.0 0.00 0.11 0.00 91 1013.4
20210228110409 65 118 2.0 8.0 0.00 0.11 0.00 91 1013.4
20210228105907 65 84 3.0 9.0 0.00 0.11 0.11 91 1013.5
20210228105410 65 103 3.0 9.0 0.00 0.11 0.11 91 1013.5
20210228104906 65 74 1.0 8.0 0.00 0.11 0.11 91 1013.6
20210228104407 65 96 2.0 3.0 0.00 0.11 0.11 91 1013.7
20210228103907 65 110 2.0 7.0 0.00 0.11 0.11 91 1013.7
20210228103407 65 101 2.0 3.0 0.00 0.11 0.11 91 1013.8
20210228103039 65 101 4.0 9.0 0.00 0.11 0.11 91 1013.8
20210228102619 65 79 4.0 9.0 0.00 0.11 0.11 91 1013.8
20210228101907 65 102 4.0 7.0 0.00 0.11 0.11 90 1013.7
20210228101407 65 119 2.0 8.0 0.00 0.11 0.11 90 1013.7
20210228100915 65 115 2.0 7.0 0.00 0.11 0.11 91 1013.8
20210228100412 65 142 1.0 7.0 0.00 0.11 0.11 90 1013.8
20210228095906 65 93 2.0 6.0 0.00 0.11 0.11 90 1013.7
20210228095406 65 122 2.0 6.0 0.00 0.11 0.11 90 1013.8
20210228094908 65 109 2.0 7.0 0.00 0.11 0.11 90 1013.7
20210228094412 65 91 2.0 8.0 0.00 0.11 0.11 90 1013.6
20210228093906 65 115 1.0 3.0 0.00 0.11 0.11 90 1013.7
20210228093411 65 107 1.0 3.0 0.00 0.11 0.11 90 1013.8
20210228092920 65 81 1.0 3.0 0.00 0.11 0.11 90 1013.8
20210228092440 65 83 2.0 3.0 0.00 0.11 0.11 90 1013.8
20210228091907 65 114 1.0 6.0 0.00 0.11 0.11 90 1013.8
20210228091406 65 124 0.0 3.0 0.00 0.11 0.11 90 1013.8
20210228090906 65 120 1.0 3.0 0.00 0.11 0.11 90 1013.7
20210228090413 65 126 1.0 3.0 0.00 0.11 0.11 90 1013.6
20210228085910 65 107 3.0 7.0 0.00 0.11 0.11 90 1013.6
20210228085407 65 111 1.0 3.0 0.00 0.11 0.11 90 1013.5
20210228085037 65 113 1.0 3.0 0.00 0.11 0.11 90 1013.6
20210228084407 65 93 2.0 5.0 0.00 0.11 0.11 90 1013.5
20210228083906 65 114 1.0 3.0 0.00 0.11 0.11 90 1013.5
20210228083410 65 133 2.0 8.0 0.00 0.11 0.11 90 1013.5
20210228082908 65 131 2.0 6.0 0.00 0.11 0.11 90 1013.6
20210228082430 65 126 1.0 2.0 0.00 0.11 0.11 90 1013.6
20210228081910 65 106 0.0 3.0 0.00 0.11 0.11 90 1013.6
20210228081410 65 116 2.0 6.0 0.00 0.11 0.11 89 1013.5
20210228080908 65 100 1.0 6.0 0.00 0.11 0.11 89 1013.5
20210228080410 65 122 1.0 3.0 0.00 0.11 0.11 89 1013.5
20210228075907 65 122 1.0 3.0 0.00 0.11 0.11 89 1013.5
20210228075411 65 120 1.0 3.0 0.00 0.11 0.11 89 1013.5
20210228074917 65 113 0.0 1.0 0.00 0.11 0.11 89 1013.5
20210228074407 65 113 0.0 2.0 0.00 0.11 0.11 89 1013.5
20210228073908 65 128 1.0 3.0 0.00 0.11 0.11 88 1013.5
20210228073408 66 131 1.0 3.0 0.00 0.11 0.11 88 1013.4
20210228072943 66 129 2.0 3.0 0.00 0.11 0.11 88 1013.4
20210228072455 66 132 1.0 3.0 0.00 0.11 0.11 87 1013.3
20210228071911 66 110 2.0 3.0 0.00 0.11 0.11 87 1013.3
20210228071412 66 133 1.0 3.0 0.00 0.11 0.11 87 1013.3
20210228070907 66 108 3.0 6.0 0.00 0.11 0.11 87 1013.3
20210228070416 66 112 3.0 6.0 0.00 0.11 0.11 87 1013.3
20210228065908 66 99 2.0 3.0 0.00 0.11 0.11 87 1013.4
20210228065412 66 50 2.0 5.0 0.00 0.11 0.11 86 1013.5
20210228064908 66 21 2.0 7.0 0.00 0.11 0.11 87 1013.6
20210228064407 66 17 5.0 9.0 0.00 0.11 0.11 87 1013.6
20210228063910 66 30 4.0 9.0 0.00 0.11 0.11 87 1013.6
20210228063406 66 46 3.0 9.0 0.00 0.11 0.11 88 1013.7
20210228063102 66 41 2.0 7.0 0.00 0.11 0.11 88 1013.6
20210228062628 67 36 2.0 7.0 0.00 0.11 0.11 88 1013.6
20210228061925 67 61 2.0 6.0 0.00 0.11 0.11 88 1013.6
20210228061407 67 11 2.0 5.0 0.00 0.11 0.11 87 1013.5
20210228060911 67 53 2.0 3.0 0.00 0.11 0.11 87 1013.6
20210228060426 67 13 3.0 5.0 0.00 0.11 0.11 87 1013.6
20210228055906 67 32 1.0 3.0 0.00 0.11 0.11 86 1013.6
20210228055408 68 101 2.0 5.0 0.00 0.11 0.11 86 1013.6
20210228054907 68 358 1.0 3.0 0.00 0.11 0.11 86 1013.5
20210228054406 68 91 1.0 3.0 0.00 0.11 0.11 85 1013.5
20210228053908 68 132 1.0 3.0 0.00 0.11 0.11 85 1013.5
20210228053408 68 81 3.0 8.0 0.00 0.11 0.11 85 1013.5
20210228053126 68 132 1.0 3.0 0.00 0.11 0.11 85 1013.6
20210228052430 68 120 2.0 8.0 0.00 0.11 0.11 85 1013.5
20210228051913 68 140 2.0 6.0 0.00 0.11 0.11 85 1013.5
20210228051408 68 113 2.0 5.0 0.00 0.11 0.11 85 1013.4
20210228050908 68 144 2.0 5.0 0.00 0.11 0.11 85 1013.4
20210228050409 68 109 2.0 6.0 0.00 0.11 0.11 85 1013.4
20210228045906 68 149 2.0 3.0 0.00 0.11 0.11 86 1013.4
20210228045406 68 1 2.0 3.0 0.00 0.11 0.11 86 1013.3
20210228044906 68 89 2.0 8.0 0.00 0.11 0.11 85 1013.3
20210228044437 68 147 1.0 7.0 0.00 0.11 0.11 85 1013.2
20210228043909 68 106 2.0 8.0 0.00 0.11 0.11 85 1013.2
20210228043408 68 138 2.0 3.0 0.00 0.11 0.11 85 1013.3
20210228042930 68 117 3.0 7.0 0.00 0.11 0.11 84 1013.3
20210228042431 69 83 3.0 8.0 0.00 0.11 0.11 84 1013.3
20210228041907 69 106 3.0 6.0 0.00 0.11 0.11 84 1013.3
20210228041407 69 80 3.0 9.0 0.00 0.11 0.11 84 1013.4
20210228040908 69 117 3.0 7.0 0.00 0.11 0.11 84 1013.4
20210228040406 69 83 5.0 10.0 0.00 0.11 0.11 83 1013.6
20210228035907 69 93 2.0 8.0 0.00 0.11 0.11 83 1013.6
20210228035406 70 76 3.0 9.0 0.00 0.11 0.11 83 1013.7
20210228034907 70 70 3.0 8.0 0.00 0.11 0.11 83 1013.7
20210228034408 70 63 3.0 8.0 0.00 0.11 0.11 84 1013.7
20210228034044 70 166 1.0 3.0 0.00 0.11 0.11 84 1013.7
20210228032907 69 94 5.0 10.0 0.00 0.11 0.11 83 1014.0
20210228032410 70 96 3.0 12.0 0.00 0.11 0.11 82 1014.1
20210228031906 71 81 3.0 7.0 0.00 0.11 0.11 81 1014.1
20210228030908 71 60 2.0 3.0 0.00 0.11 0.11 81 1014.3
20210228030408 72 121 3.0 7.0 0.00 0.11 0.11 80 1014.3
20210228025908 71 109 3.0 8.0 0.00 0.11 0.11 81 1014.5
20210228025407 71 67 3.0 7.0 0.00 0.11 0.11 81 1014.6
20210228025019 71 74 4.0 9.0 0.00 0.11 0.11 80 1014.8
20210228024407 71 327 3.0 5.0 0.00 0.11 0.11 79 1014.8
20210228023906 70 103 5.0 8.0 0.00 0.11 0.11 78 1014.9
20210228023406 71 111 3.0 8.0 0.00 0.11 0.11 79 1014.9
20210228022939 71 95 2.0 3.0 0.00 0.11 0.11 80 1014.9
20210228022414 70 60 1.0 7.0 0.00 0.11 0.11 80 1015.0
20210228021907 70 24 2.0 5.0 0.00 0.12 0.11 80 1015.0
20210228021408 69 354 6.0 9.0 0.00 0.12 0.11 80 1015.1
20210228020909 69 81 3.0 6.0 0.00 0.12 0.11 81 1015.2
20210228020409 69 29 3.0 8.0 0.00 0.12 0.11 81 1015.3
20210228015911 69 54 3.0 8.0 0.00 0.12 0.11 81 1015.3
20210228015406 69 43 5.0 7.0 0.00 0.12 0.11 81 1015.4
20210228014907 69 28 2.0 7.0 0.00 0.12 0.11 81 1015.5
20210228014407 69 24 3.0 7.0 0.00 0.12 0.11 81 1015.5
20210228013906 69 2 2.0 5.0 0.00 0.12 0.11 83 1015.6
20210228013406 69 46 1.0 3.0 0.00 0.12 0.11 82 1015.5
20210228012951 69 11 2.0 3.0 0.00 0.12 0.11 83 1015.5
20210228012423 68 43 1.0 5.0 0.00 0.12 0.11 83 1015.6
20210228011913 68 41 2.0 5.0 0.00 0.12 0.11 84 1015.6
20210228011407 68 38 3.0 6.0 0.00 0.12 0.11 84 1015.6
20210228010910 68 42 1.0 3.0 0.00 0.12 0.11 84 1015.5
20210228010411 68 53 3.0 7.0 0.00 0.12 0.11 84 1015.5
20210228005907 68 25 3.0 9.0 0.00 0.12 0.11 83 1015.6
20210228005412 68 54 3.0 8.0 0.00 0.12 0.11 83 1015.5
20210228005059 68 45 3.0 9.0 0.00 0.12 0.11 83 1015.6
20210228004406 68 18 4.0 7.0 0.00 0.12 0.11 83 1015.6
20210228003907 69 55 1.0 3.0 0.00 0.12 0.11 84 1015.5
20210228003407 68 26 4.0 8.0 0.00 0.12 0.11 82 1015.5
20210228002947 69 64 2.0 10.0 0.00 0.12 0.11 84 1015.5
20210228002441 69 35 2.0 8.0 0.00 0.12 0.11 85 1015.5
20210228001906 69 112 1.0 3.0 0.00 0.12 0.11 85 1015.5
20210228001412 69 67 2.0 6.0 0.00 0.12 0.11 85 1015.5
20210228000906 69 95 1.0 3.0 0.00 0.12 0.11 86 1015.5
20210228000407 69 93 2.0 6.0 0.00 0.12 0.11 86 1015.6
20210227235908 68 71 1.0 6.0 0.00 0.12 0.11 86 1015.6
20210227235450 68 85 3.0 10.0 0.00 0.12 0.11 87 1015.7
20210227235042 68 80 2.0 3.0 0.00 0.12 0.11 88 1015.8
20210227234425 68 92 1.0 2.0 0.00 0.12 0.11 88 1015.8
20210227233906 67 97 2.0 3.0 0.00 0.12 0.11 88 1015.9
20210227233413 67 139 1.0 7.0 0.00 0.12 0.11 88 1016.0
20210227233036 67 105 2.0 6.0 0.00 0.12 0.11 88 1016.0
20210227232428 67 66 3.0 5.0 0.00 0.12 0.11 88 1016.0
20210227231906 67 85 3.0 7.0 0.00 0.12 0.11 88 1016.0
20210227231409 67 98 3.0 8.0 0.00 0.12 0.11 88 1016.0
20210227230907 67 118 3.0 6.0 0.00 0.12 0.11 89 1015.9
20210227230407 67 103 4.0 7.0 0.00 0.12 0.11 89 1016.0
20210227225907 66 98 5.0 9.0 0.00 0.12 0.11 89 1016.0
20210227225407 66 92 3.0 9.0 0.00 0.12 0.11 89 1016.1
20210227225024 66 116 6.0 10.0 0.00 0.12 0.11 89 1016.0
20210227224409 66 80 5.0 8.0 0.00 0.12 0.11 89 1016.1
20210227223910 66 117 3.0 13.0 0.00 0.12 0.11 89 1016.1
20210227223408 66 109 1.0 3.0 0.02 0.12 0.11 90 1016.1
20210227222908 66 77 1.0 7.0 0.02 0.12 0.11 90 1016.1
20210227222445 65 93 5.0 7.0 0.04 0.12 0.11 90 1016.1
20210227221907 65 117 3.0 3.0 0.10 0.12 0.11 90 1016.1
20210227221412 65 68 3.0 6.0 0.11 0.12 0.11 90 1016.2
20210227220910 65 100 1.0 3.0 0.11 0.12 0.11 89 1016.2
20210227220409 65 149 3.0 7.0 0.11 0.12 0.11 89 1016.1
20210227215907 65 76 3.0 8.0 0.11 0.12 0.11 89 1016.2
20210227215408 65 126 5.0 9.0 0.11 0.12 0.11 89 1016.1
20210227214907 65 120 2.0 9.0 0.11 0.12 0.11 89 1016.0
20210227214413 65 120 2.0 9.0 0.11 0.12 0.11 89 1016.0
20210227213906 65 124 3.0 6.0 0.11 0.12 0.11 89 1016.1
20210227213414 65 123 4.0 10.0 0.09 0.10 0.09 88 1016.0
20210227212931 65 129 4.0 8.0 0.09 0.10 0.09 87 1016.1
20210227212420 65 49 3.0 9.0 0.07 0.08 0.07 87 1016.1
20210227211908 66 18 5.0 9.0 0.01 0.02 0.01 86 1016.1
20210227211407 66 59 1.0 8.0 0.00 0.01 0.00 85 1016.0
20210227210908 66 151 2.0 9.0 0.00 0.01 0.00 85 1016.0
20210227210408 66 87 2.0 5.0 0.00 0.01 0.00 84 1015.9
20210227205906 66 178 2.0 9.0 0.00 0.01 0.00 84 1015.9
20210227205629 66 123 4.0 10.0 0.00 0.01 0.00 84 1015.8
20210227204907 66 131 3.0 10.0 0.00 0.01 0.00 85 1015.8
20210227204412 66 142 3.0 8.0 0.00 0.01 0.00 85 1015.8
20210227203908 66 125 2.0 10.0 0.00 0.01 0.00 85 1015.7
20210227203409 66 135 3.0 12.0 0.00 0.01 0.00 85 1015.8
20210227203000 66 114 2.0 9.0 0.00 0.01 0.00 85 1015.9
20210227202411 66 127 3.0 10.0 0.00 0.01 0.00 85 1015.9
20210227201906 66 85 3.0 8.0 0.00 0.01 0.00 86 1015.8
20210227201406 66 106 1.0 12.0 0.00 0.01 0.00 86 1015.9
20210227200914 66 135 2.0 3.0 0.00 0.01 0.00 86 1015.8
20210227200407 66 129 2.0 7.0 0.00 0.01 0.00 86 1015.7
20210227195907 65 118 2.0 8.0 0.00 0.01 0.00 86 1015.7
20210227195410 65 105 1.0 6.0 0.00 0.01 0.00 86 1015.7
20210227194907 65 114 2.0 6.0 0.00 0.01 0.00 87 1015.7
20210227194406 65 95 3.0 10.0 0.00 0.01 0.00 87 1015.8
20210227193907 65 140 1.0 9.0 0.00 0.01 0.00 87 1015.8
20210227193412 65 119 2.0 7.0 0.00 0.01 0.00 87 1015.7
20210227193209 65 94 3.0 7.0 0.00 0.01 0.00 87 1015.6
20210227192406 65 101 2.0 9.0 0.00 0.01 0.00 87 1015.6
20210227191907 65 127 3.0 8.0 0.00 0.01 0.00 88 1015.6
20210227191407 65 117 4.0 10.0 0.00 0.01 0.00 88 1015.6
20210227190906 65 117 2.0 7.0 0.00 0.01 0.00 88 1015.6
20210227190406 64 77 3.0 8.0 0.00 0.01 0.00 88 1015.6
20210227185907 64 95 1.0 6.0 0.00 0.01 0.00 88 1015.6
20210227185407 64 128 3.0 8.0 0.00 0.01 0.00 88 1015.6
20210227184907 64 133 4.0 9.0 0.00 0.01 0.00 88 1015.5
20210227184411 64 91 4.0 7.0 0.00 0.01 0.00 88 1015.5
20210227183913 64 69 1.0 7.0 0.00 0.01 0.00 88 1015.5
20210227183406 64 100 3.0 8.0 0.00 0.01 0.00 88 1015.5
20210227183030 64 100 3.0 8.0 0.00 0.01 0.00 88 1015.5
20210227182426 64 114 3.0 7.0 0.00 0.01 0.00 88 1015.4
20210227181906 64 131 1.0 6.0 0.00 0.01 0.00 88 1015.4
20210227181406 64 98 2.0 6.0 0.00 0.01 0.00 87 1015.4
20210227180906 64 124 1.0 3.0 0.00 0.01 0.00 87 1015.3
20210227180407 64 79 3.0 6.0 0.00 0.01 0.00 87 1015.3
20210227175906 64 102 2.0 7.0 0.00 0.01 0.00 87 1015.3
20210227175409 64 85 2.0 6.0 0.00 0.01 0.00 87 1015.3
20210227175034 64 88 3.0 8.0 0.00 0.01 0.00 87 1015.3
20210227174409 64 94 3.0 6.0 0.00 0.01 0.00 87 1015.2
20210227173906 64 90 3.0 7.0 0.00 0.01 0.00 87 1015.2
20210227173406 64 87 5.0 7.0 0.00 0.01 0.00 87 1015.2
20210227172925 64 91 2.0 8.0 0.00 0.01 0.00 88 1015.2
20210227172420 64 75 3.0 7.0 0.00 0.01 0.00 87 1015.2
20210227171907 64 58 2.0 6.0 0.00 0.01 0.00 87 1015.2
20210227171406 64 114 3.0 7.0 0.00 0.01 0.00 88 1015.2
20210227170911 65 111 3.0 7.0 0.00 0.01 0.00 88 1015.2
20210227170406 65 93 3.0 8.0 0.00 0.01 0.00 88 1015.3
20210227165906 64 120 4.0 7.0 0.00 0.01 0.00 88 1015.3
20210227165411 64 99 1.0 6.0 0.00 0.01 0.00 88 1015.3
20210227164906 64 112 3.0 7.0 0.00 0.01 0.00 88 1015.3
20210227164411 64 105 3.0 7.0 0.00 0.01 0.00 88 1015.3
20210227163908 64 105 3.0 7.0 0.00 0.01 0.00 88 1015.3
20210227163407 64 102 3.0 7.0 0.00 0.01 0.00 88 1015.3